Location: Hains Lake
(37.8540°N, 99.8578°W)
Time: 23:04:02
(UTC+00:00)

Explorer 7 - Pass Details

Date: 28 April 2021
Orbit: 484 x 677 km, 50.3° (Epoch: 14 May)

Event Time Altitude Azimuth Distance (km) Brightness Sun altitude
Rises 03:29:46 0° 310° (NW) 2,672 11.9 -21.9°
Reaches altitude 10° 03:32:33 10° 330° (NNW) 1,818 10.4 -22.3°
Maximum altitude 03:35:24 18° 14° (NNE) 1,433 9.2 -22.8°
Enters shadow 03:37:21 14° 46° (NE) 1,660 9.2 -23.1°
